Location: Sungai Dangang
(2.7500°N, 113.8333°E)
Time: 18:04:30
(UTC+00:00)

ARIANE 5 DEB (SYLDA) - Pass Details

Date: 16 May 2021
Orbit: 602 x 35795 km, 6.0° (Epoch: 19 June)

Event Time Altitude Azimuth Distance (km) Brightness Sun altitude
Exits shadow 21:39:09 11° 241° (WSW) 1,911 4.9 -9.0°
Maximum altitude 21:42:09 29° 178° (S) 1,152 4.3 -8.3°
Drops below altitude 10° 21:46:19 10° 115° (ESE) 2,632 7.0 -7.3°
Sets 21:50:38 0° 104° (ESE) 4,730 8.6 -6.3°
